STARLINK-11556, 62838

Orbit data source: Space-Track

STARLINK-11556, 62838 is a payload satellite owned by SpaceX/Seattle (US) in LEO that was launched on Mon, 27 Jan 2025 UTC via an FALCON 9 launch vehicle from the Air Force Eastern Test Range (AFETR). Payload-class satellites include a variety of spacecraft equipped with specific instruments for various scientific and technological missions. These include communications satellites like Starlink; space stations such as the ISS; scientific satellites like the Hubble; Earth observation satellites from companies like Planet Labs, Umbra, and HawkEye 360; GPS; miniature CubeSats for education and research; and military/defense satellites.

Loading next visibility...
Identifier
62838, 2025-019K
Orbit
LEO
Last TLE update
5 hours ago
Origin
Manufacturer
SpaceX/Seattle
Mission
Operational Commercial Communications
Bus & Motor
STARLINK V2M, Unknown motor
Mass
730 kg wet, ~700 kg dry
Launch date (UTC)
2025-01-27 (5 months ago)
Launch vehicle
FALCON 9
Launch site
Air Force Eastern Test Range (AFETR)
Object type
Payload
Rocket body
Debris
Shape & HBR
Box + 2 Pan, 29 m
Radar Cross Section
36.964 m², Large (>1 m²)

Expand to show TLE details & history

TLE from 5 hours ago
0 STARLINK-11556
1 62838U 25019K   25190.10653205  .00098920  00000-0  76364-3 0  9990
2 62838  42.9996 334.0237 0001515 285.2450  74.8250 15.70890291 26510
Epoch: 2025-07-09T02:33Z
TLE epoch observation values (Epoch: 2025-07-09T02:33:24.369Z)
Latitude
-0.00001°
Longitude
8.38023°
Altitude
355.856 km
Speed
7.698 km/s
True Right ascension
22h 16m 05s
True Declination
0° 00' 00"
Sunlit
Object was in full shadow at epoch
Visualization orbit readout
Latitude
6.02696°
Longitude
13.68488°
Altitude
355.298 km
Speed
7.698 km/s
Apparent Right ascension
01h 44m 00s
Apparent Declination
-33° 22' 51"
Sunlit
Object is in full shadow
Visualization observer readout
Local Sidereal Time
19:19:45
Azimuth
113.753° SE
Elevation
-24.876°
Doppler factor
1
Orbital elements
Apogee altitude
359.354 km
Perigee altitude
357.312 km
Semi-major axis
6,736.47 km
Eccentricity
0.00015
Inclination
42.9996°
RAAN
334.0237°
Arg. of periapsis
285.245°
True anomaly
Unknown
Mean anomaly
74.825°
Eccentric anomaly
Unknown
Mean motion
3.9255 °/min
Orbital period
91.71 mins
BSTAR
0.00076364
Loading maneuver chart data...
Loading SW <> Apogee altitude chart data...
Loading historical data...
Loading historical data...
Loading historical data...
Loading historical data...
Loading historical data...
Loading historical data...
Loading historical data...

STARLINK-11556 Visibility forecast

Observer location: undefined°, undefined°

Span
Click to sort rows by Start time (UTC) header in descending order
Start Az.
Max El. time (UTC)
Max El. Az.
Max El.
End time (UTC)
End Az.
4 mins2025-07-09 13:28:18.571Z225.984° WSW2025-07-09 13:30:18.571Z156.589° SSE36.925°2025-07-09 13:32:18.571Z84.564° E
4 mins2025-07-09 15:05:18.571Z292.418° WNW2025-07-09 15:06:18.571Z340.623° N36.986°2025-07-09 15:09:18.571Z69.051° E
4 mins2025-07-09 16:41:18.571Z302.364° NW2025-07-09 16:42:18.571Z332.682° NNW35.185°2025-07-09 16:45:18.571Z85.697° E
4 mins2025-07-09 18:17:18.571Z268.205° W2025-07-09 18:19:18.571Z177.282° S32.803°2025-07-09 18:21:18.571Z134.344° SE
|